Minneapolis Flying Cloud, MN

9:37 PM CST on December 14, 2017 (GMT -0600)
Flying Cloud

Weather History for KFCM - January, 2014

Change the Weather History Date:

Thursday, January 30, 2014

  Actual Average Record
Temperature  
Mean Temperature 13 °F -  
Max Temperature 28 °F 24 °F 45 °F (2012)
Min Temperature -5 °F 9 °F -23 °F (2004)
Degree Days  
Heating Degree Days 52    
Moisture  
Dew Point 10 °F    
Average Humidity 74    
Maximum Humidity 93    
Minimum Humidity 56    
Precipitation  
Precipitation 0.13 in - - ()
Sea Level Pressure  
Sea Level Pressure 29.65 in    
Wind  
Wind Speed 10 mph (North)    
Max Wind Speed 18 mph    
Max Gust Speed 29 mph    
Visibility 5 miles    
Events Fog , Snow    
Averages and records for this station are not official NWS values.
T = Trace of Precipitation, MM = Missing Value Source: NWS Daily Summary

Daily Weather History Graph

Daily Weather History Graph

Search for Another Location

Airport or City:

Trip Planner

Search our weather history database for the weather conditions in past years. The results will help you decide how hot, cold, wet, or windy it might be!

Date:

Astronomy

Jan. 30, 2014 Rise Set
Actual Time 7:35 AM CST 5:19 PM CST
Civil Twilight 7:04 AM CST 5:50 PM CST
Nautical Twilight 6:28 AM CST 6:26 PM CST
Astronomical Twilight 5:54 AM CST 7:00 PM CST
Moon 7:00 AM CST (1/30) 5:34 PM CST (1/30)
Length of Visible Light 10h 46m
Length of Day
9h 44m
Waning Crescent, 0% of the Moon is Illuminated
Jan 30
Waning Crescent
Jan 30
New
Feb 6
First Quarter
Feb 14
Full
Feb 22
Last Quarter

Hourly Weather History & Observations

Time (CST) Temp. Windchill Dew Point Humidity Pressure Visibility Wind Dir Wind Speed Gust Speed Precip Events Conditions
12:53 AM 28.9 °F 23.9 °F 17.1 °F 61% 29.56 in 10.0 mi SSW 4.6 mph - N/A   Overcast
1:53 AM 28.9 °F 25.2 °F 18.0 °F 64% 29.54 in 10.0 mi South 3.5 mph - N/A   Overcast
2:53 AM 27.0 °F 21.6 °F 18.0 °F 69% 29.53 in 10.0 mi NE 4.6 mph - N/A   Overcast
3:53 AM 27.0 °F 18.0 °F 18.0 °F 69% 29.49 in 9.0 mi NNE 9.2 mph - N/A   Overcast
4:43 AM 24.8 °F 14.6 °F 19.4 °F 80% 29.45 in 2.0 mi NNE 10.4 mph - 0.00 in Snow Light Snow
4:53 AM 24.1 °F 14.4 °F 19.9 °F 84% 29.49 in 2.5 mi NNE 9.2 mph - 0.00 in Snow Light Snow
5:14 AM 24.8 °F 14.0 °F 21.2 °F 86% 29.44 in 1.5 mi NNE 11.5 mph - 0.00 in Snow Light Snow
5:24 AM 24.8 °F 14.6 °F 21.2 °F 86% 29.43 in 1.2 mi NNE 10.4 mph - 0.00 in Snow Light Snow
5:33 AM 24.8 °F 15.3 °F 21.2 °F 86% 29.43 in 0.8 mi NNE 9.2 mph - 0.00 in Snow Light Snow
5:53 AM 24.1 °F 16.0 °F 21.0 °F 88% 29.48 in 0.5 mi NE 6.9 mph - 0.01 in Fog , Snow Snow
6:14 AM 23.0 °F 13.9 °F 21.2 °F 93% 29.47 in 0.2 mi North 8.1 mph - 0.02 in Fog , Snow Snow
6:30 AM 23.0 °F 13.1 °F 21.2 °F 93% 29.47 in 0.2 mi NNE 9.2 mph - 0.04 in Fog , Snow Snow
6:35 AM 23.0 °F 14.7 °F 19.4 °F 86% 29.46 in 0.5 mi NNE 6.9 mph - 0.05 in Fog , Snow Snow
6:53 AM 21.9 °F 9.8 °F 19.0 °F 89% 29.49 in 0.5 mi NNE 12.7 mph 19.6 mph 0.06 in Fog , Snow Snow
7:53 AM 21.0 °F 8.1 °F 18.0 °F 88% 29.51 in 0.5 mi NNE 13.8 mph 21.9 mph 0.03 in Fog , Snow Snow
8:15 AM 19.4 °F 6.0 °F 17.6 °F 93% 29.49 in 0.2 mi North 13.8 mph - 0.01 in Fog , Snow Heavy Snow
8:53 AM 18.0 °F 4.2 °F 14.0 °F 84% 29.55 in 0.2 mi North 13.8 mph 23.0 mph 0.02 in Fog Light Freezing Fog
9:05 AM 17.6 °F 3.2 °F 12.2 °F 79% 29.52 in 0.5 mi North 15.0 mph 21.9 mph 0.01 in Fog Light Freezing Fog
9:12 AM 17.6 °F 3.2 °F 12.2 °F 79% 29.52 in 0.5 mi North 15.0 mph 21.9 mph 0.01 in Fog Light Freezing Fog
9:53 AM 16.0 °F 2.3 °F 12.0 °F 84% 29.59 in 0.5 mi North 12.7 mph 28.8 mph 0.01 in Fog Light Freezing Fog
10:18 AM 15.8 °F 0.3 °F 10.4 °F 79% 29.57 in 1.2 mi North 16.1 mph 28.8 mph N/A   Haze
10:53 AM 16.0 °F -0.4 °F 10.0 °F 77% 29.63 in 1.0 mi North 18.4 mph 27.6 mph N/A   Haze
11:38 AM 17.6 °F 5.0 °F 10.4 °F 73% 29.61 in 2.0 mi North 11.5 mph 21.9 mph N/A   Haze
11:53 AM 17.1 °F 1.5 °F 10.0 °F 74% 29.66 in 4.0 mi North 17.3 mph 26.5 mph N/A   Haze
12:33 PM 17.6 °F 2.7 °F 8.6 °F 68% 29.64 in 10.0 mi NNW 16.1 mph 26.5 mph N/A   Mostly Cloudy
12:53 PM 18.0 °F 3.1 °F 9.0 °F 68% 29.69 in 10.0 mi NW 16.1 mph - N/A   Overcast
1:53 PM 17.1 °F 1.5 °F 3.9 °F 56% 29.72 in 10.0 mi NNW 17.3 mph 25.3 mph N/A   Partly Cloudy
2:53 PM 18.0 °F 2.6 °F 5.0 °F 57% 29.76 in 10.0 mi NW 17.3 mph 27.6 mph N/A   Clear
3:53 PM 15.1 °F -0.6 °F 1.9 °F 56% 29.82 in 10.0 mi NW 16.1 mph 26.5 mph 0.00 in   Clear
4:53 PM 12.0 °F -2.7 °F -0.9 °F 56% 29.86 in 10.0 mi NW 12.7 mph - N/A   Clear
5:53 PM 8.1 °F -7.7 °F -2.9 °F 61% 29.91 in 10.0 mi West 12.7 mph - N/A   Clear
6:53 PM 3.9 °F -15.0 °F -5.1 °F 66% 29.95 in 10.0 mi WNW 16.1 mph - N/A   Clear
7:53 PM 1.9 °F -16.2 °F -8.0 °F 63% 29.99 in 10.0 mi WNW 13.8 mph - N/A   Clear
8:53 PM -0.0 °F -18.0 °F -9.9 °F 63% 30.03 in 10.0 mi WNW 12.7 mph - N/A   Clear
9:53 PM -0.9 °F -18.3 °F -11.0 °F 62% 30.07 in 10.0 mi WNW 11.5 mph - N/A   Clear
10:53 PM -2.9 °F -16.5 °F -11.9 °F 65% 30.11 in 10.0 mi West 6.9 mph - N/A   Clear
11:53 PM -5.1 °F -17.6 °F -13.0 °F 69% 30.12 in 10.0 mi WSW 5.8 mph - N/A   Clear